THOR ABLESTAR DEB

Satellite information

Favourite Embed

Satellite Type and Status

DEBRISIN ORBIT

Key statistics

Satellite THOR ABLESTAR DEB at a glance.

Uptime

23447

Days in orbit

Revolutions

≈ 14.2

Per day

Orbit

LEO

Low Earth Orbit

Inclination

66.1

Latest

Satellite identification and parameters

Extended collection of information and parameters for THOR ABLESTAR DEB.

Object identification

Identified? True

Debris? True

Object name: THOR ABLESTAR DEB

International designator: 1961-015CA

Object number (NORAD): 245

Object ID (CCSDS): 245

Country: UNITED STATES OF AMERICA (US)

Current information (Y/N): Y

RCS size: MEDIUM

Orbital parameters

Period: 101.579 minutes

Inclination: 66.1027 deg

SMA: 7211.565 km

Apoapsis: 868.744 km

Periapsis: 798.116 km

RAAN: 192.7521 deg

Eccentricy: 0.00489683

Argument of periapsis: 353.1268 deg

Mean anomaly: 6.9141 deg

Mean motion: 14.17615539 rev/day

Mean motion (dot): 0.00001239 rev/day2

B* drag term: 0.00064413161 1/REarth

Two-line elements (TLE)

Creation date: Sept. 8, 2025, 3:16 a.m.

Reference frame: TEME

Reference center: EARTH

Epoch: Sept. 7, 2025, 10:55 p.m. UTC

TLE line 0: 0 THOR ABLESTAR DEB

TLE line 1: 1 00245U 61015CA 25250.95549562 .00001239 00000-0 64413-3 0 9999

TLE line 2: 2 00245 66.1027 192.7521 0048968 353.1268 6.9141 14.17615539287869

Live tracking on map

Real-time ground track for satellite THOR ABLESTAR DEB.

In-orbit conjunctions

A list of the most updated potential collisions computed for object THOR ABLESTAR DEB.

Target Orbit TCA Probability of collision Miss distance Type
FENGYUN 1C DEB SSO 2025-06-17 06:11:13 0.0001270492 34.0 (m) DEBRIS
DELTA 1 DEB SSO 2024-11-02 02:17:03 0.0001116162 74.0 (m) DEBRIS

Associated space launch

THOR ABLESTAR DEB was lifted into orbit during the mission ‘Thor DM-21 Ablestar | Transit 4A & Injun-1 & Solrad 3’, on board a Thor DM-21 Ablestar space rocket.

The launch took place on June 29, 1961, 4:23 a.m. from Space Launch Complex 17B.

For more information about the launch, click the button.

Launch to space Thor DM-21 Ablestar | Transit 4A & Injun-1 & Solrad 3
Thor DM-21 Ablestar | Transit 4A & Injun-1 & Solrad 3

Agency: N/A

Status: Launch Successful

Launch date: June 29, 1961, 4:23 a.m. UTC

Rocket: Thor DM-21 Ablestar

Launch pad: Space Launch Complex 17B

Location: Cape Canaveral SFS, FL, USA

...

Latest news about this satellite

There are no fresh news available about this satellite. Check back as we update our databases every day.


Newsletter sign-up

Weekly statistics, charts and insights to help you stay on top of the space industry.